Weather History for Columbia, MO

Change the Weather History Date:

Monday, April 8, 2013

  Actual Average Record
Temperature  
Mean Temperature 21 °C 12 °C  
Max Temperature 26 °C 18 °C 30 °C (2001)
Min Temperature 14 °C 6 °C -5 °C (2007)
Degree Days  
Heating Degree Days 0 13  
Month to date heating degree days 108 111  
Since 1 July heating degree days 4505 4693  
Cooling Degree Days 4 1  
Month to date cooling degree days 4 1  
Year to date cooling degree days 5 4  
Growing Degree Days 18 (Base 50)    
Moisture  
Dew Point 13 °C    
Average Humidity 65    
Maximum Humidity 87    
Minimum Humidity 42    
Precipitation  
Precipitation 1.27 mm 3.56 mm 2.97 mm (1922)
Month to date precipitation 0.22 1.03  
Year to date precipitation 9.75 8.11  
Snow  
Snow 0.00 cm 0.00 cm 14.73 cm (1938)
Month to date snowfall 0.0 0.1  
Since 1 July snowfall 35.0 17.9  
Snow Depth 0.00 cm    
Sea Level Pressure  
Sea Level Pressure 1007 hPa    
Wind  
Wind Speed 18 km/h (South)    
Max Wind Speed 40 km/h    
Max Gust Speed 48 km/h    
Visibility 16 kilometers    
Events Rain , Thunderstorm    
T = Trace of Precipitation, MM = Missing Value Source: NWS Daily Summary

Daily Weather History Graph

Daily Weather History Graph

Search for Another Location

Airport:

Trip Planner

Search our weather history database for the weather conditions in past years. The results will help you decide how hot, cold, wet, or windy it might be!

Date:

Astronomy

Apr. 08, 2013 Rise Set
Actual Time 6:42 AM CDT 7:39 PM CDT
Civil Twilight 6:15 AM CDT 8:06 PM CDT
Nautical Twilight 5:43 AM CDT 8:38 PM CDT
Astronomical Twilight 5:09 AM CDT 9:12 PM CDT
Moon 5:31 AM CDT (4/8) 6:14 PM CDT (4/8)
Length of Visible Light 13h 51m
Length of Day
12h 56m
Waning Crescent, 3% of the Moon is Illuminated
Apr 8
Waning Crescent
Apr 10
New
Apr 18
First Quarter
Apr 25
Full
May 2
Last Quarter

Hourly Weather History & Observations

Time (CDT) Temp. Dew Point Humidity Pressure Visibility Wind Dir Wind Speed Gust Speed Precip Events Conditions
12:54 AM 16.7 °C 13.3 °C 80% 1006.4 hPa 16.1 km South 27.8 km/h / 7.7 m/s - N/A   Overcast
1:54 AM 16.1 °C 12.8 °C 81% 1005.1 hPa 16.1 km South 33.3 km/h / 9.3 m/s - N/A   Partly Cloudy
2:54 AM 16.1 °C 12.8 °C 81% 1005.6 hPa 16.1 km South 29.6 km/h / 8.2 m/s 38.9 km/h / 10.8 m/s N/A   Clear
3:54 AM 16.1 °C 12.8 °C 81% 1005.5 hPa 16.1 km South 20.4 km/h / 5.7 m/s - 0.0 mm Rain , Thunderstorm Light Rain
4:05 AM 16.1 °C 13.3 °C 83% 1007.3 hPa 9.7 km West 16.7 km/h / 4.6 m/s - 0.3 mm Rain , Thunderstorm Thunderstorms and Rain
4:19 AM 15.0 °C 13.3 °C 90% 1006.7 hPa 14.5 km SW 9.3 km/h / 2.6 m/s - 1.3 mm Rain Light Rain
4:54 AM 15.6 °C 13.3 °C 86% 1005.8 hPa 16.1 km SSW 16.7 km/h / 4.6 m/s - 1.3 mm   Mostly Cloudy
5:54 AM 15.0 °C 12.8 °C 87% 1006.2 hPa 16.1 km South 7.4 km/h / 2.1 m/s - N/A   Overcast
6:54 AM 15.0 °C 12.2 °C 83% 1006.2 hPa 16.1 km South 16.7 km/h / 4.6 m/s - N/A   Clear
7:54 AM 15.6 °C 13.3 °C 86% 1006.9 hPa 16.1 km SSW 13.0 km/h / 3.6 m/s - N/A   Clear
8:54 AM 17.2 °C 13.9 °C 81% 1007.5 hPa 16.1 km SSW 16.7 km/h / 4.6 m/s - N/A   Clear
9:54 AM 18.9 °C 13.9 °C 73% 1008.0 hPa 16.1 km SSW 24.1 km/h / 6.7 m/s - N/A   Mostly Cloudy
10:54 AM 20.6 °C 14.4 °C 68% 1008.4 hPa 16.1 km SW 18.5 km/h / 5.1 m/s - N/A   Mostly Cloudy
11:54 AM 20.6 °C 14.4 °C 68% 1008.1 hPa 16.1 km South 13.0 km/h / 3.6 m/s - N/A   Scattered Clouds
12:54 PM 22.2 °C 14.4 °C 61% 1008.1 hPa 16.1 km SSW 16.7 km/h / 4.6 m/s - N/A   Mostly Cloudy
1:54 PM 22.8 °C 14.4 °C 59% 1007.6 hPa 16.1 km Variable 7.4 km/h / 2.1 m/s - N/A   Scattered Clouds
2:54 PM 24.4 °C 13.9 °C 52% 1007.1 hPa 16.1 km Variable 7.4 km/h / 2.1 m/s - N/A   Mostly Cloudy
3:54 PM 25.6 °C 12.8 °C 45% 1006.4 hPa 16.1 km South 25.9 km/h / 7.2 m/s - N/A   Scattered Clouds
4:54 PM 25.6 °C 12.2 °C 43% 1006.6 hPa 16.1 km South 24.1 km/h / 6.7 m/s - N/A   Scattered Clouds
5:54 PM 23.9 °C 13.3 °C 51% 1006.9 hPa 16.1 km South 20.4 km/h / 5.7 m/s - N/A   Partly Cloudy
6:54 PM 22.8 °C 13.9 °C 57% 1007.2 hPa 16.1 km SE 13.0 km/h / 3.6 m/s - N/A   Overcast
7:54 PM 21.7 °C 13.9 °C 61% 1007.2 hPa 16.1 km ESE 13.0 km/h / 3.6 m/s - N/A   Mostly Cloudy
8:54 PM 21.1 °C 13.9 °C 63% 1007.8 hPa 16.1 km SE 13.0 km/h / 3.6 m/s - N/A   Overcast
9:54 PM 21.7 °C 13.9 °C 61% 1008.6 hPa 16.1 km SSE 16.7 km/h / 4.6 m/s - N/A   Overcast
10:54 PM 20.6 °C 15.0 °C 70% 1009.2 hPa 16.1 km SSE 14.8 km/h / 4.1 m/s - N/A   Overcast
11:54 PM 20.0 °C 15.0 °C 73% 1009.2 hPa 16.1 km SSE 20.4 km/h / 5.7 m/s - N/A   Overcast